Regional Weather Roundup
Issued by NWS

Home | Current Version | Previous Version | Text Only | Print | Product List | Glossary On
Versions: 1 2 3 4 5 6 7 8 9 10 11 12 13 14 15 16 17 18 19 20 21 22 23 24 25 26 27 28 29 30 31 32 33 34 35 36 37 38 39 40 41 42 43 44 45 46 47 48 49 50
000
ASUS44 KOUN 270210
RWROK

WEATHER ROUNDUP FOR OKLAHOMA
NATIONAL WEATHER SERVICE NORMAN OK
900 PM CDT SUN JUN 26 2016

NOTE: "FAIR" INDICATES FEW OR NO CLOUDS BELOW 12,000 FEET WITH NO
      SIGNIFICANT WEATHER AND/OR OBSTRUCTIONS TO VISIBILITY.

OKZ001>007-009>012-014-015-017-270300-
NORTHWEST OKLAHOMA AND THE PANHANDLE

CITY           SKY/WX    TMP DP  RH WIND       PRES   REMARKS
GAGE           MOCLDY    76  64  66 S3        30.09R
GUYMON         CLEAR     81  63  54 S6        30.11R
ENID/WOODRING  MOCLDY    73  72  94 S7        30.07R
$$

OKZ016-021>023-033>039-044-045-270300-
SOUTHWEST OKLAHOMA

CITY           SKY/WX    TMP DP  RH WIND       PRES   REMARKS
LAWTON/REGL    LGT RAIN  74  70  87 N13G22    30.09R
LAWTON/FT SILL LGT RAIN  72  72 100 N10       30.10R
FREDERICK      CLOUDY    76  73  91 NE9       30.04R
CLINTON        LGT RAIN  74  69  85 SE9       30.12R
HOBART         CLOUDY    73  70  90 SE12      30.09R
ALTUS AFB      CLOUDY    75  68  77 NE8       30.08R
$$

OKZ018>020-024>031-270300-
CENTRAL OKLAHOMA

CITY           SKY/WX    TMP DP  RH WIND       PRES   REMARKS
OKLAHOMA CITY  TSTM      71  70  96 W18       30.11R FOG
OKC/WILEY POST LGT RAIN  72  69  90 W9        30.12R
STILLWATER     CLOUDY    73  71  93 SE5       30.05F
GUTHRIE        TSTM      73  71  93 SW7       30.11R FOG
$$

OKZ008-013-054>072-270300-
NORTHEAST OKLAHOMA

CITY           SKY/WX    TMP DP  RH WIND       PRES   REMARKS
TULSA          CLOUDY    76  69  79 W3        30.02R
TULSA/JONES    CLOUDY    73  69  87 SW8       30.04R
PONCA CITY     LGT RAIN  72  69  90 SW7       30.06R
BARTLESVILLE   LGT RAIN  71  69  93 CALM      30.05F
MUSKOGEE       CLOUDY    82  66  58 NW17G28   30.07R
$$

OKZ032-040>043-046>053-073>077-270300-
SOUTH CENTRAL/SOUTHEAST OKLAHOMA

CITY           SKY/WX    TMP DP  RH WIND       PRES   REMARKS
ARDMORE/DWNTWN PTCLDY    82  70  65 CALM      30.05S
MCALESTER      PTCLDY    81  74  79 CALM      30.05R
$$




USA.gov is the U.S. government's official web portal to all federal, state and local government web resources and services.